FW0323 Weather Reports


Display with metric or nautical units.
time (UTC)temp
F
wind
direction
speed
MPH
gust
MPH
rain 1hr
in
rain 24hr
in
rain mn
in
humidity
%
barometer
mb
20260504020011 38 266 0.0 0.0 0.00 0.01 0.01 76 1010.7
20260504014528 38 266 0.0 1.0 0.00 0.04 0.01 74 1010.6
20260504013009 39 266 0.0 0.0 0.00 0.04 0.01 73 1010.5
20260504011508 40 266 0.0 1.0 0.00 0.04 0.01 68 1010.4
20260504010009 42 266 0.0 1.0 0.00 0.04 0.01 61 1010.2
20260504004511 43 266 0.0 2.0 0.00 0.05 0.01 59 1010.0
20260504003019 44 319 0.0 3.0 0.00 0.05 0.01 55 1009.7
20260504001506 44 280 2.0 6.0 0.00 0.05 0.01 54 1009.6
20260504000005 45 303 0.0 4.0 0.00 0.05 0.01 53 1009.3
20260503234515 45 91 0.0 3.0 0.00 0.07 0.01 51 1008.9
20260503233005 46 337 1.0 3.0 0.00 0.07 0.01 50 1008.7
20260503231504 47 147 1.0 6.0 0.00 0.07 0.01 48 1008.5
20260503230004 47 341 0.0 3.0 0.00 0.07 0.01 51 1008.2
20260503224504 48 272 1.0 5.0 0.00 0.10 0.01 45 1008.1
20260503223003 49 284 2.0 9.0 0.00 0.10 0.01 44 1007.8
20260503221503 50 356 2.0 6.0 0.00 0.10 0.01 44 1007.7
20260503220000 50 269 1.0 7.0 0.00 0.10 0.01 44 1007.1
20260503214601 51 302 2.0 5.0 0.00 0.23 0.01 42 1007.0
20260503213109 52 349 2.0 7.0 0.00 0.23 0.01 48 1006.9
20260503211600 50 313 2.0 6.0 0.00 0.23 0.01 45 1007.0
20260503210107 51 38 1.0 6.0 0.00 0.23 0.01 46 1006.9
20260503204607 51 333 1.0 6.0 0.00 0.26 0.01 48 1006.8
20260503203103 52 248 4.0 7.0 0.00 0.26 0.01 45 1006.7
20260503201553 51 20 0.0 3.0 0.00 0.26 0.01 50 1006.9
20260503200058 51 290 0.0 5.0 0.00 0.26 0.01 51 1007.0
20260503194551 51 219 1.0 6.0 0.00 0.26 0.01 53 1007.1
20260503193055 52 280 3.0 7.0 0.00 0.26 0.01 48 1007.1
20260503191556 52 264 1.0 12.0 0.00 0.26 0.01 48 1007.3
20260503190053 52 282 1.0 6.0 0.00 0.26 0.01 55 1007.2
20260503184556 52 58 0.0 5.0 0.00 0.26 0.01 55 1007.2
20260503183101 51 12 0.0 7.0 0.00 0.26 0.01 52 1007.1
20260503181544 52 278 2.0 7.0 0.00 0.26 0.01 55 1007.2
20260503180046 50 337 1.0 9.0 0.00 0.26 0.01 62 1007.3
20260503174538 49 70 1.0 8.0 0.00 0.27 0.01 63 1007.3
20260503173101 48 302 1.0 5.0 0.00 0.27 0.01 68 1007.4
20260503171534 48 301 0.0 4.0 0.00 0.27 0.01 70 1007.5
20260503120111 40 99 0.0 1.0 0.00 0.33 0.01 98 1009.9
20260503081539 39 231 0.0 1.0 0.01 0.34 0.01 98 1011.3
20260503071538 40 231 0.0 0.0 0.00 0.33 0.00 98 1011.3
20260503054534 41 244 0.0 1.0 0.00 0.33 0.00 98 1012.7
20260503053033 41 244 0.0 1.0 0.00 0.33 0.00 98 1012.6
20260503051522 41 224 0.0 1.0 0.00 0.33 0.00 97 1012.7
20260503050021 41 224 0.0 2.0 0.00 0.33 0.00 97 1013.3
20260503044520 41 214 0.0 1.0 0.00 0.33 0.00 97 1013.0
20260503043017 41 256 0.0 1.0 0.00 0.33 0.00 98 1013.3
20260503041516 41 345 0.0 1.0 0.00 0.33 0.00 97 1013.5
20260503040014 41 37 0.0 1.0 0.00 0.33 0.00 97 1013.7
20260503034532 41 37 0.0 1.0 0.00 0.33 0.33 97 1014.0
20260503033015 41 37 0.0 1.0 0.00 0.33 0.33 97 1014.0
20260503031513 41 1 0.0 1.0 0.00 0.33 0.33 97 1013.9
20260503030010 41 1 0.0 2.0 0.00 0.33 0.33 97 1014.3
20260503024510 42 9 0.0 1.0 0.00 0.33 0.33 97 1014.3
20260503023009 42 9 0.0 1.0 0.00 0.33 0.33 97 1014.1
20260503021508 42 304 0.0 1.0 0.01 0.33 0.33 97 1014.2